Location: Unspecified
(0.0000°N, 0.0000°E)
Time: 03:04:47
(UTC+00:00)

Vanguard 1 - Pass Details

Date: 13 December 2023
Orbit: 653 x 3826 km, 34.3° (Epoch: 22 February)

Event Time Altitude Azimuth Distance (km) Brightness Sun altitude
Rises 10:09:06 0° 203° (SSW) 3,009 12.7 55.6°
Reaches altitude 10° 10:12:35 10° 174° (S) 2,053 12.3 56.2°
Maximum altitude 10:14:48 13° 143° (SE) 1,878 12.4 56.6°
Drops below altitude 10° 10:17:10 10° 113° (ESE) 2,210 12.6 57.0°
Sets 10:21:13 0° 86° (E) 3,455 13.2 57.7°
